Home > Time Zones > World Clock > Weather > France > Caen > Past weeks

Flag for France Weather past 2 weeks in Caen, France

Now
50 °F

Clear.


Feels Like: 45 °F
Forecast: 44 / 65 °F
Wind: 14 mph from Northeast

Location: Caen Airport

Current Time: Apr 19, 2015 at 6:49:49 PM

Latest Report: Apr 19, 2015 at 6:30 PM


Visibility: N/A

Pressure: 30.12 "Hg

Humidity: 71%

Dew point: 41 °F

Location of CaenLocation

Historic Weather in Caen — Graph

°F

Caen temperature yesterday

Maximum temperature yesterday: 63 °F (at 4:30 PM)
Minimum temperature yesterday: 46 °F (at 5:00 AM)
Average temperature yesterday: 53 °F

Past Weeks' High & Low Weather Summary

 TemperatureHumidityPressure
High77 °F (Apr 15, 2:30 PM)100% (Apr 5, 8:30 AM)30.63 "Hg (Apr 5, 8:30 AM)
Low32 °F (Apr 6, 5:00 AM)30% (Apr 9, 3:00 PM)29.83 "Hg (Apr 16, 5:00 PM)
Average52 °F73%30.24 "Hg
* Reported Apr 4 6:00 PM — Apr 19 6:00 PM, Caen, Weather by CustomWeather, © 2015

Note: Actual official high and low records may vary slightly from our data, if they occured in-between our weather recording intervals... More about our weather records

Advertising

Caen weather history for previous 24 hours

 ConditionsComfort  
Time TempWeatherWind HumidityBarometerVisibility
6:00 PM
Sun, Apr 19
52 °FClear.16 mph67%30.12 "HgN/A
5:30 PM52 °FClear.15 mph67%30.12 "HgN/A
5:00 PM52 °FClear.17 mph67%30.12 "HgN/A
4:30 PM52 °FClear.16 mph67%30.12 "HgN/A
4:00 PM52 °FClear.17 mph72%30.12 "HgN/A
3:30 PM54 °FClear.15 mph67%30.12 "HgN/A
3:00 PM52 °FClear.16 mph72%30.12 "HgN/A
2:30 PM52 °FClear.17 mph72%30.12 "HgN/A
2:00 PM54 °FClear.14 mph72%30.12 "HgN/A
1:30 PM54 °FClear.14 mph67%30.12 "HgN/A
1:00 PM54 °FClear.12 mph67%30.12 "HgN/A
12:30 PM52 °FClear.14 mph67%30.15 "HgN/A
12:00 PM52 °FClear.13 mph72%30.15 "HgN/A
11:30 AM52 °FClear.12 mph67%30.15 "HgN/A
11:00 AM50 °FClear.13 mph67%30.15 "HgN/A
10:30 AM50 °FClear.10 mph67%30.15 "HgN/A
10:00 AM48 °FClear.12 mph71%30.15 "HgN/A
9:30 AM48 °FClear.12 mph71%30.15 "HgN/A
9:00 AM48 °FClear.9 mph71%30.15 "HgN/A
8:30 AM46 °FClear.8 mph76%30.15 "HgN/A
8:00 AM45 °FClear.7 mph81%30.15 "HgN/A
7:30 AM43 °FClear.5 mph81%30.12 "HgN/A
7:00 AM43 °FClear.3 mph76%30.15 "HgN/A
6:30 AM43 °FClear.7 mph76%30.12 "HgN/A
6:00 AM45 °FClear.7 mph71%30.12 "HgN/A
5:30 AM45 °FClear.7 mph71%30.15 "HgN/A
5:00 AM45 °FClear.8 mph71%30.15 "HgN/A
4:30 AM46 °FClear.8 mph66%30.15 "HgN/A
4:00 AM46 °FClear.10 mph66%30.15 "HgN/A
3:30 AM48 °FClear.10 mph66%30.15 "HgN/A
3:00 AM46 °FClear.10 mph71%30.15 "HgN/A
2:30 AM48 °FClear.10 mph71%30.15 "HgN/A
2:00 AM46 °FClear.8 mph82%30.18 "HgN/A
1:00 AM48 °FClear.9 mph82%30.18 "HgN/A
12:30 AM48 °FClear.9 mph82%30.18 "HgN/A
12:00 AM48 °FClear.8 mph82%30.18 "HgN/A
11:00 PM
Sat, Apr 18
50 °FClear.7 mph71%30.18 "HgN/A
10:30 PM50 °FClear.8 mph71%30.15 "HgN/A
10:00 PM50 °FClear.8 mph76%30.15 "HgN/A
9:30 PM50 °FClear.9 mph76%30.15 "HgN/A
9:00 PM52 °FClear.10 mph72%30.15 "HgN/A
8:30 PM57 °FClear.15 mph41%30.12 "HgN/A
8:00 PM59 °FClear.18 mph39%30.12 "HgN/A
7:30 PM59 °FClear.15 mph39%30.12 "HgN/A
7:00 PM61 °FClear.20 mph36%30.12 "HgN/A
6:30 PM63 °FClear.14 mph37%30.12 "HgN/A
6:00 PM63 °FClear.15 mph37%30.12 "HgN/A
Weather by CustomWeather, © 2015

See weather overviewHow to use our weather pages